Miscellaneous Local Product
Issued by NWS Hastings, NE

Home | Current Version | Previous Version | Text Only | Print | Product List | Glossary Off
Versions: 1 2 3 4 5 6 7 8 9 10 11 12 13 14 15 16 17 18 19 20 21 22 23 24 25 26 27 28 29 30 31 32 33 34 35 36 37 38 39 40 41 42 43 44 45 46 47 48 49 50

353
AXUS43 KGID 151602
MISGRI

GID CWA HOURLY WEATHER ROUNDUP
NATIONAL WEATHER SERVICE HASTINGS NE
1100 AM CDT TUE AUG 15 2017

NOTE: "FAIR" INDICATES FEW OR NO CLOUDS BELOW 12,000 FEET WITH NO
SIGNIFICANT WEATHER AND/OR OBSTRUCTIONS TO VISIBILITY.

...SOUTH CENTRAL NEBRASKA...

CITY           SKY/WX    TMP DP  RH WIND       PRES   REMARKS
GRAND ISLAND   CLOUDY    72  68  87 E14       29.88S
HASTINGS       CLOUDY    71  67  87 E9        29.89R
KEARNEY        CLOUDY    72  68  87 E10       29.88R
ORD            SUNNY     77  66  68 SE12      29.83S
YORK           CLOUDY    70  66  88 SE13      29.89S
AURORA         CLOUDY    71  69  92 E10       29.88S
LEXINGTON      CLOUDY    71  67  86 SE9       29.87S FOG
HOLDREGE       CLOUDY    75  70  83 E3        29.87S
HEBRON         MOSUNNY   83  72  68 S6        29.87S

...NEBRASKA PANHANDLE...

CITY           SKY/WX    TMP DP  RH WIND       PRES   REMARKS
CHADRON        LGT RAIN  68  61  78 SW7       29.91R
ALLIANCE       CLOUDY    67  63  87 S10       29.94R
SCOTTSBLUFF    CLOUDY    71  58  63 VRB3      29.94S
SIDNEY         MOSUNNY   71  64  78 E8        29.93F

...WESTERN AND NORTH CENTRAL NEBRASKA...

CITY           SKY/WX    TMP DP  RH WIND       PRES   REMARKS
VALENTINE      PTSUNNY   69  62  78 S8        29.87S
AINSWORTH      CLOUDY    71  65  81 S7        29.88R
ONEILL         CLOUDY    70  65  86 SE10      29.87F
BROKEN BOW     CLOUDY    71  65  81 SE13      29.87R
IMPERIAL       CLOUDY    68  65  90 E7        29.89S
NORTH PLATTE   CLOUDY    68  65  90 SE6       29.88R
MCCOOK         CLOUDY    74  68  81 E7        29.86R

...EASTERN NEBRASKA...

CITY           SKY/WX    TMP DP  RH WIND       PRES   REMARKS
NORFOLK        MOSUNNY   69  65  86 E5        29.87R
SO SIOUX CITY  CLOUDY    69  67  93 SE12G18   29.88R
TEKAMAH        CLOUDY    69  66  90 SE9       29.87S
COLUMBUS       CLOUDY    73  67  81 SE12      29.87F
ALBION         CLOUDY    74  67  78 SE13      29.86S
OMAHA EPPLEY   CLOUDY    70  66  87 E12       29.90S
OFFUTT AFB     CLOUDY    69  66  89 NE10      29.90S
MILLARD        CLOUDY    73  67  81 E9        29.90S
LINCOLN        CLOUDY    70  65  84 E14       29.90S
NEBRASKA CITY  PTSUNNY   78  76  92 SW3       29.91R
BEATRICE       MOSUNNY   84  72  68 S5        29.88S
FALLS CITY     CLOUDY    81  73  76 S6        29.90R

...NORTHERN KANSAS...

CITY           SKY/WX    TMP DP  RH WIND       PRES   REMARKS
GOODLAND       PTSUNNY   74  63  68 S13       29.87S
HILL CITY      SUNNY     86  65  49 S10G20    29.85S
NORTON         SUNNY     81  63  54 SE10      29.85
PHILLIPSBURG   MOSUNNY   86  68  54 S8        29.85S
SMITH CENTER   SUNNY     82  70  65 S9G17     29.86S
HAYS           PTSUNNY   84  69  60 S13       29.86R
RUSSELL        SUNNY     85  64  49 S15G25    29.85S
CONCORDIA      SUNNY     84  70  62 S15       29.87R
SALINA         SUNNY     89  68  49 S16G23    29.86F HX  93
TOPEKA         MOSUNNY   80  74  81 S6        29.90R



USA.gov is the U.S. government's official web portal to all federal, state and local government web resources and services.